| time (UTC) | temp C | wind direction | speed KPH | gust KPH | rain 1hr cm | rain 24hr cm | rain mn cm | humidity % | barometer mb |
| 20260905213346 | 20 | 300 | 4.8 | 14.5 | 0.00 | 0.00 | 0.00 | 70 | 1014.1 |
| 20260905212843 | 21 | 9 | 4.8 | 12.9 | 0.00 | 0.00 | 0.00 | 69 | 1014.1 |
| 20260905212359 | 21 | 66 | 4.8 | 9.7 | 0.00 | 0.00 | 0.00 | 68 | 1014.0 |
| 20260905211835 | 20 | 281 | 3.2 | 9.7 | 0.00 | 0.00 | 0.00 | 72 | 1013.9 |
| 20260905211352 | 20 | 288 | 4.8 | 9.7 | 0.00 | 0.00 | 0.00 | 71 | 1013.9 |
| 20260905210848 | 20 | 343 | 3.2 | 9.7 | 0.00 | 0.00 | 0.00 | 70 | 1013.9 |
| 20260905210341 | 21 | 321 | 3.2 | 9.7 | 0.00 | 0.00 | 0.00 | 68 | 1013.8 |
| 20260905205850 | 21 | 332 | 3.2 | 11.3 | 0.00 | 0.00 | 0.00 | 69 | 1013.8 |
| 20260905205345 | 21 | 348 | 3.2 | 11.3 | 0.00 | 0.00 | 0.00 | 69 | 1013.9 |
| 20260905204842 | 21 | 25 | 4.8 | 11.3 | 0.00 | 0.00 | 0.00 | 65 | 1013.8 |
| 20260905204339 | 21 | 17 | 4.8 | 12.9 | 0.00 | 0.00 | 0.00 | 69 | 1013.8 |
| 20260905203854 | 21 | 344 | 6.4 | 11.3 | 0.00 | 0.00 | 0.00 | 67 | 1013.9 |
| 20260905203349 | 21 | 285 | 3.2 | 11.3 | 0.00 | 0.00 | 0.00 | 65 | 1013.9 |
| 20260905202846 | 22 | 293 | 3.2 | 9.7 | 0.00 | 0.00 | 0.00 | 67 | 1013.8 |
| 20260905202343 | 22 | 338 | 6.4 | 9.7 | 0.00 | 0.00 | 0.00 | 65 | 1013.8 |
| 20260905201840 | 22 | 97 | 3.2 | 8.0 | 0.00 | 0.00 | 0.00 | 67 | 1013.8 |
| 20260905201340 | 21 | 148 | 3.2 | 8.0 | 0.00 | 0.00 | 0.00 | 68 | 1013.8 |
| 20260905200856 | 21 | 210 | 3.2 | 9.7 | 0.00 | 0.00 | 0.00 | 70 | 1013.9 |
| 20260905200331 | 21 | 13 | 4.8 | 14.5 | 0.00 | 0.00 | 0.00 | 69 | 1013.8 |
| 20260905195840 | 21 | 17 | 6.4 | 14.5 | 0.00 | 0.00 | 0.00 | 69 | 1013.9 |
| 20260905195357 | 21 | 63 | 3.2 | 9.7 | 0.00 | 0.00 | 0.00 | 69 | 1013.9 |
| 20260905194852 | 21 | 195 | 4.8 | 9.7 | 0.00 | 0.00 | 0.00 | 67 | 1014.0 |
| 20260905194408 | 21 | 197 | 3.2 | 6.4 | 0.00 | 0.00 | 0.00 | 71 | 1014.1 |
| 20260905193844 | 21 | 9 | 3.2 | 9.7 | 0.00 | 0.00 | 0.00 | 68 | 1014.1 |
| 20260905193340 | 21 | 57 | 3.2 | 12.9 | 0.00 | 0.00 | 0.00 | 68 | 1014.0 |
| 20260905192837 | 22 | 296 | 6.4 | 12.9 | 0.00 | 0.00 | 0.00 | 68 | 1014.1 |
| 20260905192334 | 22 | 311 | 4.8 | 17.7 | 0.00 | 0.00 | 0.00 | 67 | 1014.1 |
| 20260905191850 | 22 | 301 | 3.2 | 17.7 | 0.00 | 0.00 | 0.00 | 67 | 1014.1 |
| 20260905191406 | 21 | 333 | 6.4 | 16.1 | 0.00 | 0.00 | 0.00 | 68 | 1014.1 |
| 20260905190900 | 22 | 48 | 3.2 | 12.9 | 0.00 | 0.00 | 0.00 | 66 | 1014.1 |
| 20260905190355 | 22 | 262 | 6.4 | 14.5 | 0.00 | 0.00 | 0.00 | 69 | 1014.1 |
| 20260905185843 | 21 | 51 | 6.4 | 14.5 | 0.00 | 0.00 | 0.00 | 69 | 1014.2 |
| 20260905185339 | 21 | 248 | 4.8 | 8.0 | 0.00 | 0.00 | 0.00 | 68 | 1014.3 |
| 20260905184834 | 21 | 322 | 3.2 | 12.9 | 0.00 | 0.00 | 0.00 | 72 | 1014.2 |
| 20260905184350 | 21 | 63 | 6.4 | 12.9 | 0.00 | 0.00 | 0.00 | 72 | 1014.2 |
| 20260905183848 | 21 | 69 | 3.2 | 6.4 | 0.00 | 0.00 | 0.00 | 71 | 1014.3 |
| 20260905183343 | 21 | 5 | 1.6 | 8.0 | 0.00 | 0.00 | 0.00 | 65 | 1014.2 |
| 20260905182900 | 21 | 57 | 1.6 | 6.4 | 0.00 | 0.00 | 0.00 | 67 | 1014.3 |
| 20260905182335 | 21 | 351 | 1.6 | 6.4 | 0.00 | 0.00 | 0.00 | 73 | 1014.3 |
| 20260905181852 | 21 | 342 | 3.2 | 6.4 | 0.00 | 0.00 | 0.00 | 69 | 1014.2 |
| 20260905181347 | 21 | 17 | 3.2 | 9.7 | 0.00 | 0.00 | 0.00 | 68 | 1014.2 |
| 20260905180841 | 22 | 51 | 6.4 | 14.5 | 0.00 | 0.00 | 0.00 | 67 | 1014.2 |
| 20260905180335 | 21 | 15 | 6.4 | 14.5 | 0.00 | 0.00 | 0.00 | 68 | 1014.2 |
| 20260905175843 | 21 | 54 | 1.6 | 9.7 | 0.00 | 0.00 | 0.00 | 67 | 1014.2 |
| 20260905175344 | 21 | 317 | 4.8 | 9.7 | 0.00 | 0.00 | 0.00 | 67 | 1014.2 |
| 20260905174841 | 21 | 232 | 4.8 | 9.7 | 0.00 | 0.00 | 0.00 | 68 | 1014.2 |
| 20260905174338 | 21 | 24 | 3.2 | 6.4 | 0.00 | 0.00 | 0.00 | 70 | 1014.3 |
| 20260905173855 | 21 | 281 | 3.2 | 6.4 | 0.00 | 0.00 | 0.00 | 72 | 1014.2 |
| 20260905173412 | 21 | 232 | 3.2 | 12.9 | 0.00 | 0.00 | 0.00 | 73 | 1014.2 |
| 20260905172847 | 21 | 292 | 6.4 | 12.9 | 0.00 | 0.00 | 0.00 | 69 | 1014.3 |
| 20260905172344 | 20 | 28 | 3.2 | 9.7 | 0.00 | 0.00 | 0.00 | 74 | 1014.5 |
| 20260905171839 | 20 | 51 | 1.6 | 8.0 | 0.00 | 0.00 | 0.00 | 73 | 1014.4 |
| 20260905171357 | 20 | 294 | 3.2 | 9.7 | 0.00 | 0.00 | 0.00 | 72 | 1014.3 |
| 20260905170832 | 20 | 52 | 4.8 | 9.7 | 0.00 | 0.00 | 0.00 | 72 | 1014.3 |
| 20260905170329 | 20 | 9 | 4.8 | 8.0 | 0.00 | 0.00 | 0.00 | 72 | 1014.4 |
| 20260905165858 | 20 | 355 | 4.8 | 9.7 | 0.00 | 0.00 | 0.00 | 73 | 1014.4 |
| 20260905165335 | 20 | 50 | 4.8 | 9.7 | 0.00 | 0.00 | 0.00 | 74 | 1014.4 |
| 20260905164912 | 20 | 38 | 3.2 | 9.7 | 0.00 | 0.00 | 0.00 | 75 | 1014.3 |
| 20260905164408 | 20 | 45 | 3.2 | 9.7 | 0.00 | 0.00 | 0.00 | 72 | 1014.5 |
| 20260905163844 | 20 | 46 | 4.8 | 12.9 | 0.00 | 0.00 | 0.00 | 72 | 1014.5 |
| 20260905163343 | 20 | 344 | 6.4 | 14.5 | 0.00 | 0.00 | 0.00 | 72 | 1014.3 |
| 20260905162839 | 20 | 360 | 1.6 | 14.5 | 0.00 | 0.00 | 0.00 | 75 | 1014.4 |
| 20260905162342 | 20 | 30 | 6.4 | 14.5 | 0.00 | 0.00 | 0.00 | 74 | 1014.4 |
| 20260905161859 | 20 | 355 | 6.4 | 17.7 | 0.00 | 0.00 | 0.00 | 72 | 1014.4 |
| 20260905161334 | 20 | 53 | 4.8 | 17.7 | 0.00 | 0.00 | 0.00 | 71 | 1014.3 |
| 20260905160832 | 21 | 74 | 8.0 | 17.7 | 0.00 | 0.00 | 0.00 | 69 | 1014.4 |
| 20260905160349 | 21 | 67 | 9.7 | 17.7 | 0.00 | 0.00 | 0.00 | 72 | 1014.4 |
| 20260905155838 | 21 | 105 | 4.8 | 14.5 | 0.00 | 0.00 | 0.00 | 75 | 1014.4 |
| 20260905155339 | 20 | 96 | 6.4 | 12.9 | 0.00 | 0.00 | 0.00 | 73 | 1014.6 |
| 20260905154834 | 20 | 284 | 6.4 | 12.9 | 0.00 | 0.00 | 0.00 | 73 | 1014.6 |
| 20260905154350 | 21 | 271 | 1.6 | 12.9 | 0.00 | 0.00 | 0.00 | 74 | 1014.4 |
| 20260905153847 | 20 | 71 | 6.4 | 16.1 | 0.00 | 0.00 | 0.00 | 75 | 1014.5 |
| 20260905153343 | 20 | 84 | 8.0 | 20.9 | 0.00 | 0.00 | 0.00 | 73 | 1014.6 |
| 20260905152840 | 21 | 53 | 9.7 | 20.9 | 0.00 | 0.00 | 0.00 | 73 | 1014.5 |
| 20260905152338 | 21 | 349 | 4.8 | 11.3 | 0.00 | 0.00 | 0.00 | 77 | 1014.5 |
| 20260905151833 | 20 | 80 | 6.4 | 19.3 | 0.00 | 0.00 | 0.00 | 72 | 1014.6 |
| 20260905151351 | 20 | 336 | 8.0 | 24.1 | 0.00 | 0.00 | 0.00 | 75 | 1014.5 |
| 20260905150847 | 20 | 315 | 4.8 | 24.1 | 0.00 | 0.00 | 0.00 | 74 | 1014.5 |
| 20260905150403 | 21 | 111 | 6.4 | 17.7 | 0.00 | 0.00 | 0.00 | 74 | 1014.6 |
| 20260905145850 | 21 | 96 | 9.7 | 24.1 | 0.00 | 0.00 | 0.00 | 77 | 1014.6 |
| 20260905145407 | 20 | 70 | 6.4 | 24.1 | 0.00 | 0.00 | 0.00 | 75 | 1014.6 |
| 20260905144841 | 20 | 51 | 11.3 | 20.9 | 0.00 | 0.00 | 0.00 | 74 | 1014.5 |
| 20260905144337 | 20 | 88 | 6.4 | 19.3 | 0.00 | 0.00 | 0.00 | 74 | 1014.5 |
| 20260905143835 | 20 | 95 | 12.9 | 19.3 | 0.00 | 0.00 | 0.00 | 75 | 1014.4 |
| 20260905143351 | 20 | 107 | 6.4 | 16.1 | 0.00 | 0.00 | 0.00 | 74 | 1014.3 |
| 20260905142848 | 20 | 32 | 9.7 | 16.1 | 0.00 | 0.00 | 0.00 | 74 | 1014.4 |
| 20260905142344 | 20 | 74 | 6.4 | 16.1 | 0.00 | 0.00 | 0.00 | 77 | 1014.3 |
| 20260905141859 | 20 | 31 | 6.4 | 16.1 | 0.00 | 0.00 | 0.00 | 76 | 1014.5 |
| 20260905141340 | 20 | 22 | 8.0 | 14.5 | 0.00 | 0.00 | 0.00 | 78 | 1014.5 |
| 20260905140837 | 20 | 80 | 4.8 | 14.5 | 0.00 | 0.00 | 0.00 | 76 | 1014.5 |
| 20260905140333 | 20 | 28 | 4.8 | 12.9 | 0.00 | 0.00 | 0.00 | 80 | 1014.4 |
| 20260905135841 | 20 | 73 | 6.4 | 14.5 | 0.00 | 0.00 | 0.00 | 79 | 1014.5 |
| 20260905135338 | 20 | 44 | 4.8 | 16.1 | 0.00 | 0.00 | 0.00 | 80 | 1014.5 |
| 20260905134854 | 19 | 130 | 6.4 | 16.1 | 0.00 | 0.00 | 0.00 | 81 | 1014.5 |
| 20260905134349 | 19 | 73 | 6.4 | 14.5 | 0.00 | 0.00 | 0.00 | 81 | 1014.6 |
| 20260905133846 | 19 | 103 | 8.0 | 14.5 | 0.00 | 0.00 | 0.00 | 83 | 1014.6 |
| 20260905133341 | 19 | 355 | 4.8 | 11.3 | 0.00 | 0.00 | 0.00 | 85 | 1014.6 |
| 20260905132838 | 19 | 113 | 4.8 | 9.7 | 0.00 | 0.00 | 0.00 | 85 | 1014.6 |
| 20260905132335 | 18 | 47 | 3.2 | 8.0 | 0.00 | 0.00 | 0.00 | 86 | 1014.5 |
| 20260905131851 | 18 | 82 | 4.8 | 9.7 | 0.00 | 0.00 | 0.00 | 88 | 1014.5 |
| 20260905131348 | 18 | 141 | 3.2 | 9.7 | 0.00 | 0.00 | 0.00 | 86 | 1014.5 |
| 20260905130842 | 18 | 42 | 4.8 | 16.1 | 0.00 | 0.00 | 0.00 | 87 | 1014.4 |
| 20260905130338 | 18 | 31 | 6.4 | 16.1 | 0.00 | 0.00 | 0.00 | 87 | 1014.5 |
| 20260905125846 | 18 | 46 | 4.8 | 14.5 | 0.00 | 0.00 | 0.00 | 86 | 1014.4 |
| 20260905125343 | 18 | 20 | 6.4 | 12.9 | 0.00 | 0.00 | 0.00 | 87 | 1014.3 |
| 20260905124839 | 18 | 32 | 1.6 | 9.7 | 0.00 | 0.00 | 0.00 | 88 | 1014.4 |
| 20260905124356 | 18 | 61 | 1.6 | 12.9 | 0.00 | 0.00 | 0.00 | 88 | 1014.4 |
| 20260905123836 | 17 | 24 | 8.0 | 12.9 | 0.00 | 0.00 | 0.00 | 88 | 1014.5 |
| 20260905123352 | 17 | 28 | 6.4 | 11.3 | 0.00 | 0.00 | 0.00 | 88 | 1014.5 |
| 20260905122848 | 17 | 60 | 4.8 | 9.7 | 0.00 | 0.00 | 0.00 | 88 | 1014.5 |
| 20260905122344 | 17 | 76 | 4.8 | 9.7 | 0.00 | 0.00 | 0.00 | 88 | 1014.5 |
| 20260905121841 | 17 | 63 | 4.8 | 8.0 | 0.00 | 0.00 | 0.00 | 88 | 1014.5 |
| 20260905121336 | 17 | 42 | 4.8 | 9.7 | 0.00 | 0.00 | 0.00 | 89 | 1014.5 |
| 20260905120834 | 17 | 44 | 3.2 | 9.7 | 0.00 | 0.00 | 0.00 | 91 | 1014.5 |
| 20260905120329 | 17 | 57 | 1.6 | 6.4 | 0.00 | 0.00 | 0.00 | 92 | 1014.5 |
| 20260905115857 | 17 | 41 | 1.6 | 4.8 | 0.00 | 0.00 | 0.00 | 94 | 1014.6 |
| 20260905115333 | 17 | 44 | 0.0 | 4.8 | 0.00 | 0.00 | 0.00 | 94 | 1014.5 |
| 20260905114848 | 17 | 29 | 3.2 | 4.8 | 0.00 | 0.00 | 0.00 | 95 | 1014.5 |
| 20260905114345 | 17 | 29 | 1.6 | 3.2 | 0.00 | 0.00 | 0.00 | 95 | 1014.5 |
| 20260905113840 | 16 | 29 | 1.6 | 3.2 | 0.00 | 0.00 | 0.00 | 95 | 1014.5 |
| 20260905113357 | 16 | 29 | 1.6 | 4.8 | 0.00 | 0.00 | 0.00 | 94 | 1014.5 |
| 20260905112833 | 16 | 29 | 1.6 | 3.2 | 0.00 | 0.00 | 0.00 | 94 | 1014.5 |
| 20260905112348 | 16 | 29 | 0.0 | 3.2 | 0.00 | 0.00 | 0.00 | 94 | 1014.4 |
| 20260905111845 | 16 | 29 | 0.0 | 1.6 | 0.00 | 0.00 | 0.00 | 94 | 1014.2 |
| 20260905111342 | 16 | 29 | 0.0 | 3.2 | 0.00 | 0.00 | 0.00 | 94 | 1014.2 |
| 20260905110840 | 16 | 29 | 1.6 | 3.2 | 0.00 | 0.00 | 0.00 | 94 | 1014.1 |
| 20260905110356 | 16 | 29 | 0.0 | 3.2 | 0.00 | 0.00 | 0.00 | 94 | 1013.9 |
| 20260905105844 | 16 | 29 | 1.6 | 3.2 | 0.00 | 0.00 | 0.00 | 94 | 1013.9 |
| 20260905105400 | 16 | 29 | 0.0 | 4.8 | 0.00 | 0.00 | 0.00 | 94 | 1013.8 |
| 20260905104835 | 16 | 29 | 0.0 | 4.8 | 0.00 | 0.00 | 0.00 | 94 | 1013.5 |
| 20260905104334 | 16 | 33 | 1.6 | 4.8 | 0.00 | 0.00 | 0.00 | 94 | 1013.5 |
| 20260905103849 | 16 | 34 | 1.6 | 4.8 | 0.00 | 0.00 | 0.00 | 94 | 1013.4 |
| 20260905103346 | 16 | 338 | 1.6 | 6.4 | 0.00 | 0.00 | 0.00 | 93 | 1013.5 |
| 20260905102842 | 16 | 355 | 3.2 | 6.4 | 0.00 | 0.00 | 0.00 | 93 | 1013.4 |
| 20260905102338 | 16 | 334 | 0.0 | 6.4 | 0.00 | 0.00 | 0.00 | 93 | 1013.5 |
| 20260905101836 | 16 | 328 | 1.6 | 6.4 | 0.00 | 0.00 | 0.00 | 93 | 1013.4 |
| 20260905101351 | 16 | 22 | 1.6 | 3.2 | 0.00 | 0.00 | 0.00 | 93 | 1013.5 |
| 20260905100848 | 16 | 22 | 0.0 | 3.2 | 0.00 | 0.00 | 0.00 | 93 | 1013.7 |
| 20260905100344 | 16 | 22 | 0.0 | 3.2 | 0.00 | 0.00 | 0.00 | 93 | 1013.5 |
| 20260905095833 | 16 | 22 | 1.6 | 4.8 | 0.00 | 0.00 | 0.00 | 93 | 1013.4 |
| 20260905095348 | 16 | 27 | 0.0 | 4.8 | 0.00 | 0.00 | 0.00 | 93 | 1013.3 |
| 20260905094846 | 16 | 27 | 1.6 | 4.8 | 0.00 | 0.00 | 0.00 | 93 | 1013.5 |
| 20260905094342 | 16 | 26 | 3.2 | 4.8 | 0.00 | 0.00 | 0.00 | 93 | 1013.4 |
| 20260905093839 | 16 | 350 | 1.6 | 3.2 | 0.00 | 0.00 | 0.00 | 93 | 1013.4 |
| 20260905093335 | 16 | 350 | 1.6 | 3.2 | 0.00 | 0.00 | 0.00 | 92 | 1013.4 |
| 20260905092852 | 16 | 350 | 0.0 | 3.2 | 0.00 | 0.00 | 0.00 | 92 | 1013.4 |
| 20260905092332 | 16 | 350 | 0.0 | 4.8 | 0.00 | 0.00 | 0.00 | 92 | 1013.3 |
| 20260905091849 | 16 | 350 | 1.6 | 4.8 | 0.00 | 0.00 | 0.00 | 92 | 1013.5 |
| 20260905091347 | 16 | 350 | 1.6 | 4.8 | 0.00 | 0.00 | 0.00 | 92 | 1013.4 |
| 20260905090842 | 16 | 350 | 1.6 | 4.8 | 0.00 | 0.00 | 0.00 | 92 | 1013.4 |
| 20260905090338 | 16 | 350 | 0.0 | 3.2 | 0.00 | 0.00 | 0.00 | 92 | 1013.3 |
| 20260905085846 | 16 | 350 | 0.0 | 3.2 | 0.00 | 0.00 | 0.00 | 92 | 1013.3 |
| 20260905085343 | 16 | 350 | 0.0 | 4.8 | 0.00 | 0.00 | 0.00 | 92 | 1013.2 |
| 20260905084841 | 16 | 350 | 1.6 | 4.8 | 0.00 | 0.00 | 0.00 | 92 | 1013.1 |
| 20260905084337 | 16 | 349 | 1.6 | 3.2 | 0.00 | 0.00 | 0.00 | 91 | 1013.0 |
| 20260905083852 | 16 | 349 | 0.0 | 1.6 | 0.00 | 0.00 | 0.00 | 91 | 1012.9 |
| 20260905083349 | 16 | 349 | 0.0 | 1.6 | 0.00 | 0.00 | 0.00 | 91 | 1013.0 |
| 20260905082844 | 16 | 349 | 0.0 | 3.2 | 0.00 | 0.00 | 0.00 | 91 | 1013.0 |
| 20260905082341 | 16 | 349 | 0.0 | 4.8 | 0.00 | 0.00 | 0.00 | 91 | 1013.1 |
| 20260905081837 | 16 | 349 | 1.6 | 4.8 | 0.00 | 0.00 | 0.00 | 91 | 1013.0 |
| 20260905081333 | 16 | 349 | 1.6 | 4.8 | 0.00 | 0.00 | 0.00 | 91 | 1013.2 |
| 20260905080849 | 16 | 349 | 1.6 | 4.8 | 0.00 | 0.00 | 0.00 | 91 | 1013.2 |
| 20260905080345 | 17 | 349 | 1.6 | 6.4 | 0.00 | 0.00 | 0.00 | 91 | 1013.2 |
| 20260905075834 | 17 | 11 | 3.2 | 8.0 | 0.00 | 0.00 | 0.00 | 91 | 1013.1 |
| 20260905075411 | 17 | 28 | 1.6 | 6.4 | 0.00 | 0.00 | 0.00 | 91 | 1013.1 |
| 20260905074906 | 17 | 17 | 1.6 | 6.4 | 0.00 | 0.00 | 0.00 | 91 | 1013.2 |
| 20260905074341 | 17 | 26 | 3.2 | 8.0 | 0.00 | 0.00 | 0.00 | 90 | 1013.2 |
| 20260905073857 | 17 | 30 | 3.2 | 6.4 | 0.00 | 0.00 | 0.00 | 90 | 1013.3 |
| 20260905073335 | 17 | 16 | 3.2 | 8.0 | 0.00 | 0.00 | 0.00 | 90 | 1013.4 |
| 20260905072850 | 17 | 57 | 3.2 | 8.0 | 0.00 | 0.00 | 0.00 | 90 | 1013.4 |
| 20260905072347 | 17 | 360 | 1.6 | 8.0 | 0.00 | 0.00 | 0.00 | 90 | 1013.4 |
| 20260905071903 | 17 | 36 | 3.2 | 8.0 | 0.00 | 0.00 | 0.00 | 89 | 1013.6 |
| 20260905071339 | 17 | 11 | 1.6 | 4.8 | 0.00 | 0.00 | 0.00 | 89 | 1013.7 |
| 20260905070835 | 17 | 15 | 1.6 | 4.8 | 0.00 | 0.00 | 0.00 | 89 | 1013.6 |
| 20260905070331 | 17 | 26 | 1.6 | 4.8 | 0.00 | 0.00 | 0.00 | 89 | 1013.6 |
| 20260905065838 | 17 | 26 | 1.6 | 4.8 | 0.00 | 0.00 | 0.00 | 89 | 1013.6 |
| 20260905065335 | 17 | 26 | 1.6 | 4.8 | 0.00 | 0.00 | 0.00 | 89 | 1013.7 |
| 20260905064851 | 17 | 9 | 0.0 | 4.8 | 0.00 | 0.00 | 0.00 | 89 | 1013.6 |
| 20260905064408 | 17 | 355 | 1.6 | 4.8 | 0.00 | 0.00 | 0.00 | 88 | 1013.7 |
| 20260905063841 | 17 | 355 | 1.6 | 4.8 | 0.00 | 0.00 | 0.00 | 88 | 1013.7 |
| 20260905063338 | 17 | 355 | 1.6 | 4.8 | 0.00 | 0.00 | 0.00 | 88 | 1013.8 |
| 20260905062834 | 17 | 355 | 1.6 | 4.8 | 0.00 | 0.00 | 0.00 | 88 | 1013.9 |
| 20260905062410 | 17 | 355 | 1.6 | 4.8 | 0.00 | 0.00 | 0.00 | 88 | 1013.9 |
| 20260905061846 | 17 | 5 | 1.6 | 4.8 | 0.00 | 0.00 | 0.00 | 88 | 1014.0 |
| 20260905061342 | 17 | 355 | 1.6 | 4.8 | 0.00 | 0.00 | 0.00 | 88 | 1013.8 |
| 20260905060839 | 17 | 5 | 1.6 | 6.4 | 0.00 | 0.00 | 0.00 | 88 | 1014.0 |
| 20260905060354 | 17 | 360 | 1.6 | 6.4 | 0.00 | 0.00 | 0.00 | 89 | 1014.1 |
| 20260905055843 | 17 | 14 | 3.2 | 8.0 | 0.00 | 0.00 | 0.00 | 89 | 1014.0 |
| 20260905055338 | 17 | 355 | 3.2 | 9.7 | 0.00 | 0.00 | 0.00 | 89 | 1014.1 |
| 20260905054835 | 17 | 322 | 1.6 | 9.7 | 0.00 | 0.00 | 0.00 | 89 | 1014.1 |
| 20260905054335 | 17 | 15 | 3.2 | 6.4 | 0.00 | 0.00 | 0.00 | 89 | 1014.1 |
| 20260905053852 | 17 | 27 | 3.2 | 6.4 | 0.00 | 0.00 | 0.00 | 89 | 1014.1 |
| 20260905053348 | 17 | 349 | 1.6 | 8.0 | 0.00 | 0.00 | 0.00 | 89 | 1014.2 |
| 20260905052844 | 17 | 47 | 1.6 | 8.0 | 0.00 | 0.00 | 0.00 | 89 | 1014.2 |
| 20260905052340 | 17 | 338 | 1.6 | 6.4 | 0.00 | 0.00 | 0.00 | 89 | 1014.1 |
| 20260905051837 | 17 | 336 | 0.0 | 6.4 | 0.00 | 0.00 | 0.00 | 89 | 1014.0 |
| 20260905051333 | 17 | 314 | 1.6 | 6.4 | 0.00 | 0.00 | 0.00 | 90 | 1014.0 |
| 20260905050850 | 17 | 325 | 1.6 | 8.0 | 0.00 | 0.00 | 0.00 | 90 | 1014.0 |
| 20260905050346 | 17 | 298 | 3.2 | 8.0 | 0.00 | 0.00 | 0.00 | 90 | 1014.1 |
| 20260905045854 | 17 | 316 | 1.6 | 6.4 | 0.00 | 0.00 | 0.00 | 91 | 1014.1 |
| 20260905045350 | 17 | 313 | 1.6 | 4.8 | 0.00 | 0.00 | 0.00 | 91 | 1014.1 |
| 20260905044907 | 17 | 321 | 0.0 | 4.8 | 0.00 | 0.00 | 0.00 | 91 | 1014.1 |
| 20260905044402 | 17 | 321 | 1.6 | 4.8 | 0.00 | 0.00 | 0.00 | 91 | 1014.1 |
| 20260905043838 | 17 | 304 | 1.6 | 4.8 | 0.00 | 0.00 | 0.00 | 92 | 1014.2 |
| 20260905043354 | 17 | 325 | 3.2 | 4.8 | 0.00 | 0.00 | 0.00 | 92 | 1014.2 |
| 20260905042850 | 18 | 304 | 1.6 | 4.8 | 0.00 | 0.00 | 0.00 | 92 | 1014.2 |
| 20260905042345 | 18 | 279 | 1.6 | 4.8 | 0.00 | 0.00 | 0.00 | 92 | 1014.3 |
| 20260905041842 | 18 | 279 | 1.6 | 6.4 | 0.00 | 0.00 | 0.00 | 93 | 1014.3 |
| 20260905041338 | 18 | 18 | 1.6 | 4.8 | 0.00 | 0.00 | 0.00 | 93 | 1014.4 |
| 20260905040834 | 18 | 22 | 1.6 | 4.8 | 0.00 | 0.00 | 0.00 | 93 | 1014.2 |
| 20260905040330 | 18 | 22 | 1.6 | 3.2 | 0.00 | 0.00 | 0.00 | 93 | 1014.3 |
| 20260905035838 | 18 | 22 | 1.6 | 3.2 | 0.00 | 0.00 | 0.00 | 93 | 1014.3 |
| 20260905035339 | 18 | 22 | 0.0 | 1.6 | 0.00 | 0.00 | 0.00 | 93 | 1014.3 |
| 20260905034855 | 18 | 22 | 0.0 | 1.6 | 0.00 | 0.00 | 0.00 | 93 | 1014.3 |
| 20260905034350 | 18 | 22 | 0.0 | 1.6 | 0.00 | 0.00 | 0.00 | 93 | 1014.2 |
| 20260905033846 | 18 | 22 | 0.0 | 0.0 | 0.00 | 0.00 | 0.00 | 93 | 1014.2 |
| 20260905033344 | 18 | 22 | 0.0 | 0.0 | 0.00 | 0.00 | 0.00 | 93 | 1014.3 |
| 20260905032838 | 18 | 22 | 0.0 | 0.0 | 0.00 | 0.00 | 0.00 | 93 | 1014.4 |
| 20260905032335 | 18 | 22 | 0.0 | 0.0 | 0.00 | 0.00 | 0.00 | 93 | 1014.3 |
| 20260905031913 | 18 | 22 | 0.0 | 0.0 | 0.00 | 0.00 | 0.00 | 93 | 1014.3 |
| 20260905031347 | 18 | 22 | 0.0 | 0.0 | 0.00 | 0.00 | 0.00 | 93 | 1014.2 |
| 20260905030904 | 18 | 22 | 0.0 | 0.0 | 0.00 | 0.00 | 0.00 | 93 | 1014.2 |
| 20260905030339 | 18 | 22 | 0.0 | 1.6 | 0.00 | 0.00 | 0.00 | 92 | 1014.1 |
| 20260905025848 | 18 | 22 | 0.0 | 1.6 | 0.00 | 0.00 | 0.00 | 92 | 1014.2 |
| 20260905025343 | 18 | 22 | 0.0 | 1.6 | 0.00 | 0.00 | 0.00 | 92 | 1014.1 |
| 20260905024839 | 18 | 22 | 0.0 | 1.6 | 0.00 | 0.00 | 0.00 | 92 | 1014.2 |
| 20260905024335 | 18 | 22 | 0.0 | 1.6 | 0.00 | 0.00 | 0.00 | 92 | 1014.2 |
| 20260905023912 | 18 | 22 | 0.0 | 1.6 | 0.00 | 0.00 | 0.00 | 92 | 1014.2 |
| 20260905023349 | 18 | 22 | 0.0 | 1.6 | 0.00 | 0.00 | 0.00 | 92 | 1014.2 |
| 20260905022846 | 18 | 22 | 0.0 | 0.0 | 0.00 | 0.00 | 0.00 | 91 | 1014.3 |
| 20260905022342 | 18 | 22 | 0.0 | 1.6 | 0.00 | 0.00 | 0.00 | 91 | 1014.3 |
| 20260905021858 | 18 | 22 | 0.0 | 1.6 | 0.00 | 0.00 | 0.00 | 91 | 1014.3 |
| 20260905021332 | 18 | 22 | 0.0 | 0.0 | 0.00 | 0.00 | 0.00 | 91 | 1014.3 |
| 20260905020910 | 18 | 22 | 0.0 | 0.0 | 0.00 | 0.00 | 0.00 | 91 | 1014.3 |
| 20260905020344 | 19 | 22 | 0.0 | 0.0 | 0.00 | 0.00 | 0.00 | 91 | 1014.2 |
| 20260905015912 | 19 | 22 | 0.0 | 0.0 | 0.00 | 0.00 | 0.00 | 91 | 1014.3 |
| 20260905015408 | 19 | 22 | 0.0 | 0.0 | 0.00 | 0.00 | 0.00 | 91 | 1014.3 |
| 20260905014843 | 19 | 22 | 0.0 | 0.0 | 0.00 | 0.00 | 0.00 | 91 | 1014.3 |
| 20260905014340 | 19 | 22 | 0.0 | 0.0 | 0.00 | 0.00 | 0.00 | 90 | 1014.3 |
| 20260905013837 | 19 | 22 | 0.0 | 1.6 | 0.00 | 0.00 | 0.00 | 90 | 1014.3 |
| 20260905013337 | 19 | 22 | 0.0 | 1.6 | 0.00 | 0.00 | 0.00 | 90 | 1014.4 |
| 20260905012853 | 19 | 22 | 0.0 | 0.0 | 0.00 | 0.00 | 0.00 | 90 | 1014.3 |
| 20260905012348 | 19 | 22 | 0.0 | 0.0 | 0.00 | 0.00 | 0.00 | 90 | 1014.4 |
| 20260905011842 | 19 | 22 | 0.0 | 0.0 | 0.00 | 0.00 | 0.00 | 90 | 1014.3 |
| 20260905011339 | 19 | 22 | 0.0 | 0.0 | 0.00 | 0.00 | 0.00 | 89 | 1014.3 |
| 20260905010837 | 19 | 22 | 0.0 | 0.0 | 0.00 | 0.00 | 0.00 | 89 | 1014.2 |
| 20260905010331 | 19 | 22 | 0.0 | 0.0 | 0.00 | 0.00 | 0.00 | 89 | 1014.2 |
| 20260905005840 | 19 | 22 | 0.0 | 0.0 | 0.00 | 0.00 | 0.00 | 89 | 1014.2 |
| 20260905005336 | 19 | 22 | 0.0 | 0.0 | 0.00 | 0.00 | 0.00 | 89 | 1014.2 |
| 20260905004851 | 19 | 22 | 0.0 | 0.0 | 0.00 | 0.00 | 0.00 | 89 | 1014.2 |
| 20260905004406 | 20 | 22 | 0.0 | 0.0 | 0.00 | 0.00 | 0.00 | 89 | 1014.3 |
| 20260905003841 | 20 | 22 | 0.0 | 0.0 | 0.00 | 0.00 | 0.00 | 88 | 1014.4 |
| 20260905003336 | 20 | 22 | 0.0 | 0.0 | 0.00 | 0.00 | 0.00 | 88 | 1014.5 |
| 20260905002839 | 20 | 22 | 0.0 | 0.0 | 0.00 | 0.00 | 0.00 | 88 | 1014.4 |
| 20260905002335 | 20 | 22 | 0.0 | 0.0 | 0.00 | 0.00 | 0.00 | 88 | 1014.5 |
| 20260905001912 | 20 | 22 | 0.0 | 0.0 | 0.00 | 0.00 | 0.00 | 88 | 1014.5 |
| 20260905001345 | 20 | 22 | 0.0 | 0.0 | 0.00 | 0.00 | 0.00 | 87 | 1014.4 |
| 20260905000842 | 20 | 22 | 0.0 | 0.0 | 0.00 | 0.00 | 0.00 | 87 | 1014.2 |
| 20260905000357 | 20 | 22 | 0.0 | 0.0 | 0.00 | 0.00 | 0.00 | 86 | 1014.2 |
| 20260904235905 | 20 | 22 | 0.0 | 0.0 | 0.00 | 0.03 | 0.00 | 86 | 1014.1 |
| 20260904235339 | 20 | 22 | 0.0 | 0.0 | 0.00 | 0.03 | 0.00 | 86 | 1014.3 |
| 20260904234836 | 20 | 22 | 0.0 | 0.0 | 0.00 | 0.03 | 0.00 | 85 | 1014.4 |
| 20260904234337 | 20 | 22 | 0.0 | 0.0 | 0.00 | 0.03 | 0.00 | 85 | 1014.3 |
| 20260904233834 | 20 | 22 | 0.0 | 0.0 | 0.00 | 0.03 | 0.00 | 85 | 1014.4 |
| 20260904233350 | 20 | 22 | 0.0 | 0.0 | 0.00 | 0.03 | 0.00 | 85 | 1014.3 |
| 20260904232847 | 20 | 22 | 0.0 | 0.0 | 0.00 | 0.03 | 0.00 | 84 | 1014.2 |
| 20260904232343 | 21 | 22 | 0.0 | 0.0 | 0.00 | 0.03 | 0.00 | 84 | 1014.1 |
| 20260904231839 | 21 | 22 | 0.0 | 0.0 | 0.00 | 0.03 | 0.00 | 84 | 1014.1 |
| 20260904231335 | 21 | 22 | 0.0 | 0.0 | 0.00 | 0.03 | 0.00 | 83 | 1013.9 |
| 20260904230852 | 21 | 22 | 0.0 | 0.0 | 0.00 | 0.03 | 0.00 | 83 | 1013.9 |
| 20260904230346 | 21 | 22 | 0.0 | 0.0 | 0.00 | 0.03 | 0.00 | 82 | 1013.9 |
| 20260904225837 | 21 | 22 | 0.0 | 0.0 | 0.00 | 0.03 | 0.00 | 81 | 1013.9 |
| 20260904225353 | 21 | 22 | 0.0 | 0.0 | 0.00 | 0.03 | 0.00 | 81 | 1013.8 |
| 20260904224910 | 21 | 22 | 0.0 | 1.6 | 0.00 | 0.03 | 0.00 | 81 | 1013.9 |
| 20260904224344 | 21 | 22 | 0.0 | 1.6 | 0.00 | 0.03 | 0.00 | 80 | 1013.8 |
| 20260904223842 | 21 | 22 | 0.0 | 0.0 | 0.00 | 0.03 | 0.00 | 79 | 1013.8 |
| 20260904223336 | 21 | 22 | 0.0 | 3.2 | 0.00 | 0.03 | 0.00 | 79 | 1013.7 |
| 20260904222851 | 21 | 22 | 0.0 | 3.2 | 0.00 | 0.03 | 0.00 | 78 | 1013.6 |
| 20260904222345 | 21 | 22 | 0.0 | 6.4 | 0.00 | 0.03 | 0.00 | 78 | 1013.6 |
| 20260904221840 | 21 | 22 | 1.6 | 6.4 | 0.00 | 0.03 | 0.00 | 77 | 1013.5 |
| 20260904221333 | 21 | 26 | 1.6 | 4.8 | 0.00 | 0.03 | 0.00 | 78 | 1013.3 |
| 20260904220833 | 21 | 14 | 1.6 | 3.2 | 0.00 | 0.03 | 0.00 | 78 | 1013.1 |
| 20260904220348 | 21 | 14 | 0.0 | 0.0 | 0.00 | 0.03 | 0.00 | 79 | 1013.1 |
| 20260904215835 | 21 | 14 | 0.0 | 0.0 | 0.00 | 0.03 | 0.00 | 80 | 1013.1 |
| 20260904215351 | 21 | 14 | 0.0 | 0.0 | 0.00 | 0.03 | 0.00 | 79 | 1013.1 |
| 20260904214846 | 21 | 14 | 0.0 | 1.6 | 0.00 | 0.03 | 0.00 | 79 | 1013.0 |
| 20260904214339 | 21 | 14 | 0.0 | 3.2 | 0.00 | 0.03 | 0.00 | 80 | 1013.1 |
| 20260904213913 | 21 | 14 | 0.0 | 3.2 | 0.00 | 0.03 | 0.00 | 80 | 1013.0 |